This demonstration page uses our WeatherBlox Daily Observations layout. Learn more.

Left ArrowRight Arrow

Hourly Observations for September 27, 2022

Temp ( °F °C ) Dew Point ( °F °C ) Humidity (%) Winds ( mph kmh ) Pressure ( in mb ) Visibility ( mi km ) Precip ( " mm )
12:53 am 00:53 Mostly Clear 48 8.9 45 7.2 89 89 Calm 29.97 1015 10 16 0.00 0.00
1:53 am 01:53 Partly Cloudy 46 7.8 44 6.7 93 93 Calm 29.97 1015 10 16 0.00 0.00
2:53 am 02:53 Mostly Clear 46 7.8 43 6.1 89 89 Calm 29.98 1015 10 16 0.00 0.00
3:53 am 03:53 Clear 44 6.7 42 5.6 93 93 Calm 29.96 1015 10 16 0.00 0.00
4:53 am 04:53 Clear 45 7.2 43 6.1 93 93 Calm 29.97 1015 10 16 0.00 0.00
5:53 am 05:53 Mostly Clear 45 7.2 43 6.1 93 93 Calm 29.97 1015 10 16 0.00 0.00
6:53 am 06:53 Clear 43 6.1 41 5 93 93 Calm 29.99 1016 10 16 0.00 0.00
7:53 am 07:53 Sunny with Mist and Fog 43 6.1 41 5 93 93 Calm 30.01 1016 6 10 0.00 0.00
8:53 am 08:53 Sunny 49 9.4 44 6.7 83 83 VRB 5 7 30.02 1017 10 16 0.00 0.00
9:53 am 09:53 Sunny 54 12.2 45 7.2 71 71 VRB 5 7 30.04 1017 10 16 0.00 0.00
10:53 am 10:53 Sunny 59 15 44 6.7 58 58 VRB 7 11 30.04 1017 10 16 0.00 0.00
11:53 am 11:53 Partly Cloudy 61 16.1 40 4.4 46 46 W 13 20 30.05 1018 10 16 0.00 0.00
12:53 pm 12:53 Mostly Cloudy 61 16.1 38 3.3 42 42 W 8 13 30.06 1018 10 16 0.00 0.00
1:53 pm 13:53 Partly Cloudy 61 16.1 37 2.8 41 41 NW 12 19 30.07 1018 10 16 0.00 0.00
2:53 pm 14:53 Mostly Sunny 64 17.8 38 3.3 38 38 NW 14 22 30.06 1018 10 16 0.00 0.00
3:53 pm 15:53 Mostly Cloudy 64 17.8 36 2.2 35 35 W 13 20 30.07 1018 10 16 0.00 0.00
4:53 pm 16:53 Mostly Cloudy 63 17.2 35 1.7 35 35 WNW 14 22 30.09 1019 10 16 0.00 0.00
5:53 pm 17:53 Cloudy 62 16.7 35 1.7 36 36 NW 9 15 30.10 1019 10 16 0.00 0.00
6:53 pm 18:53 Partly Cloudy 59 15 34 1.1 39 39 NW 13 20 30.12 1020 10 16 0.00 0.00
7:53 pm 19:53 Clear 51 10.6 41 5 68 68 Calm 30.14 1021 10 16 0.00 0.00
8:53 pm 20:53 Clear 49 9.4 40 4.4 71 71 NW 5 7 30.17 1022 10 16 0.00 0.00
9:53 pm 21:53 Clear 48 8.9 36 2.2 63 63 NNW 6 9 30.19 1022 10 16 0.00 0.00
10:53 pm 22:53 Clear 47 8.3 36 2.2 65 65 NNW 6 9 30.21 1023 10 16 0.00 0.00
11:53 pm 23:53 Clear 45 7.2 39 3.9 80 80 NW 3 6 30.23 1024 10 16 0.00 0.00

Powered by AerisWeather